Phuket, Thailand

5:33 PM +07 on August 20, 2017 (GMT +0700)
Phuket International

Weather History for VTSP - September, 2013

Change the Weather History Date:

Thursday, September 19, 2013

  Actual Average Record
Temperature  
Mean Temperature 81 °F -  
Max Temperature 87 °F 87 °F 93 °F (1996)
Min Temperature 75 °F 76 °F 73 °F (2011)
Cooling Degree Days 16    
Growing Degree Days 31 (Base 50)    
Moisture  
Dew Point 74 °F    
Average Humidity 72    
Maximum Humidity 79    
Minimum Humidity 58    
Precipitation  
Precipitation 0.00 in 0.49 in - ()
Sea Level Pressure  
Sea Level Pressure 29.77 in    
Wind  
Wind Speed 11 mph ()    
Max Wind Speed 17 mph    
Max Gust Speed 23 mph    
Visibility 5.9 miles    
Events      
Averages and records for this station are not official NWS values.
T = Trace of Precipitation, MM = Missing Value Source: Averaged Metar Reports

Daily Weather History Graph

Daily Weather History Graph

Search for Another Location

Airport or City:

Trip Planner

Search our weather history database for the weather conditions in past years. The results will help you decide how hot, cold, wet, or windy it might be!

Date:

Astronomy

Sep. 19, 2013 Rise Set
Actual Time 6:16 AM +07 6:24 PM +07
Civil Twilight 5:55 AM +07 6:45 PM +07
Nautical Twilight 5:31 AM +07 7:09 PM +07
Astronomical Twilight 5:06 AM +07 7:34 PM +07
Moon 6:13 PM +07 (9/19) 5:48 AM +07 (9/19)
Length of Visible Light 12h 49m
Length of Day
12h 08m
Full, 100% of the Moon is Illuminated
Sep 19
Full
Sep 19
Full
Sep 27
Last Quarter
Oct 5
New
Oct 12
First Quarter

Hourly Weather History & Observations

Time (+07) Temp. Heat Index Dew Point Humidity Pressure Visibility Wind Dir Wind Speed Gust Speed Precip Events Conditions
12:00 AM 82.4 °F 88.2 °F 73.4 °F 74% 29.80 in 6.2 mi West 11.5 mph - N/A   Scattered Clouds
12:30 AM 82.4 °F 89.5 °F 75.2 °F 79% 29.80 in 6.2 mi West 11.5 mph - N/A   Scattered Clouds
1:00 AM 83 °F - 76 °F 75% 29.75 in 6 mi Calm Calm - -   Scattered Clouds
1:00 AM 82.4 °F 89.5 °F 75.2 °F 79% 29.77 in 6.2 mi West 9.2 mph - N/A   Scattered Clouds
1:30 AM 82.4 °F 88.2 °F 73.4 °F 74% 29.77 in 6.2 mi West 12.7 mph - N/A   Scattered Clouds
2:30 AM 82.4 °F 88.2 °F 73.4 °F 74% 29.77 in 6.2 mi West 15.0 mph - N/A   Scattered Clouds
3:00 AM 82.4 °F 88.2 °F 73.4 °F 74% 29.74 in 6.2 mi West 13.8 mph - N/A   Scattered Clouds
3:30 AM 82.4 °F 88.2 °F 73.4 °F 74% 29.74 in 6.2 mi West 11.5 mph - N/A   Mostly Cloudy
4:00 AM 82.4 °F 88.2 °F 73.4 °F 74% 29.74 in 6.2 mi West 15.0 mph - N/A   Mostly Cloudy
4:30 AM 82.4 °F 88.2 °F 73.4 °F 74% 29.74 in 6.2 mi West 15.0 mph - N/A   Mostly Cloudy
5:00 AM 82.4 °F 88.2 °F 73.4 °F 74% 29.74 in 6.2 mi WSW 11.5 mph - N/A   Mostly Cloudy
5:30 AM 82.4 °F 88.2 °F 73.4 °F 74% 29.74 in 6.2 mi West 11.5 mph - N/A   Mostly Cloudy
6:00 AM 82.4 °F 88.2 °F 73.4 °F 74% 29.74 in 6.2 mi WSW 16.1 mph - N/A   Mostly Cloudy
6:30 AM 82.4 °F 88.2 °F 73.4 °F 74% 29.77 in 6.2 mi West 15.0 mph - N/A   Mostly Cloudy
7:00 AM 83 °F - 78 °F 79% 29.74 in 6 mi West 8.1 mph - -   Scattered Clouds
7:00 AM 84.2 °F 90.9 °F 73.4 °F 70% 29.77 in 6.2 mi West 16.1 mph - N/A   Mostly Cloudy
7:30 AM 84.2 °F 90.9 °F 73.4 °F 70% 29.80 in 6.2 mi West 13.8 mph - N/A   Mostly Cloudy
8:00 AM 84.2 °F 90.9 °F 73.4 °F 70% 29.80 in 6.2 mi WSW 13.8 mph - N/A   Mostly Cloudy
8:30 AM 84.2 °F 90.9 °F 73.4 °F 70% 29.80 in 6.2 mi West 13.8 mph - N/A   Mostly Cloudy
9:00 AM 84.2 °F 90.9 °F 73.4 °F 70% 29.80 in 6.2 mi West 11.5 mph - N/A   Mostly Cloudy
9:30 AM 86.0 °F 93.4 °F 73.4 °F 66% 29.80 in 6.2 mi West 15.0 mph - N/A   Mostly Cloudy
10:00 AM 86.0 °F 93.4 °F 73.4 °F 66% 29.83 in 6.2 mi West 17.3 mph - N/A   Mostly Cloudy
10:30 AM 86.0 °F 93.4 °F 73.4 °F 66% 29.83 in 6.2 mi West 13.8 mph - N/A   Mostly Cloudy
11:00 AM 84.2 °F 90.9 °F 73.4 °F 70% 29.83 in 6.2 mi West 11.5 mph - N/A   Mostly Cloudy
11:30 AM 86.0 °F 93.4 °F 73.4 °F 66% 29.83 in 6.2 mi WSW 10.4 mph - N/A   Mostly Cloudy
12:00 PM 86.0 °F 93.4 °F 73.4 °F 66% 29.80 in 6.2 mi West 11.5 mph - N/A   Mostly Cloudy
12:30 PM 86.0 °F 93.4 °F 73.4 °F 66% 29.80 in 6.2 mi WSW 11.5 mph - N/A   Mostly Cloudy
1:00 PM 88 °F - 75 °F 58% 29.75 in 6 mi West 6.9 mph - -   Scattered Clouds
1:00 PM 87.8 °F 95.6 °F 73.4 °F 62% 29.77 in 6.2 mi West 16.1 mph - N/A   Mostly Cloudy
1:30 PM 86.0 °F 95.1 °F 75.2 °F 70% 29.77 in 6.2 mi West 15.0 mph - N/A   Mostly Cloudy
2:00 PM 87.8 °F 97.6 °F 75.2 °F 66% 29.74 in 5.6 mi West 15.0 mph - N/A   Mostly Cloudy
2:30 PM 86.0 °F 95.1 °F 75.2 °F 70% 29.74 in 5.6 mi West 15.0 mph - N/A   Mostly Cloudy
3:00 PM 86.0 °F 93.4 °F 73.4 °F 66% 29.71 in 5.6 mi West 13.8 mph - N/A   Mostly Cloudy
3:30 PM 86.0 °F 95.1 °F 75.2 °F 70% 29.71 in 5.6 mi West 12.7 mph - N/A   Mostly Cloudy
4:00 PM 84.2 °F 90.9 °F 73.4 °F 70% 29.71 in 5.6 mi WSW 9.2 mph - N/A   Mostly Cloudy
4:30 PM 84.2 °F 90.9 °F 73.4 °F 70% 29.71 in 5.6 mi WSW 10.4 mph - N/A   Mostly Cloudy
5:00 PM 84.2 °F 90.9 °F 73.4 °F 70% 29.71 in 5.6 mi WSW 12.7 mph - N/A   Mostly Cloudy
5:30 PM 84.2 °F 90.9 °F 73.4 °F 70% 29.71 in 5.0 mi WSW 8.1 mph - N/A   Mostly Cloudy
6:00 PM 82.4 °F 88.2 °F 73.4 °F 74% 29.71 in 5.6 mi Variable 9.2 mph - N/A   Mostly Cloudy
6:30 PM 84.2 °F 90.9 °F 73.4 °F 70% 29.74 in 5.6 mi WSW 11.5 mph - N/A   Mostly Cloudy
7:00 PM 82 °F - 76 °F 77% 29.71 in 6 mi West 5.8 mph - -   Scattered Clouds
7:00 PM 82.4 °F 88.2 °F 73.4 °F 74% 29.74 in 5.6 mi SW 5.8 mph - N/A   Mostly Cloudy
7:30 PM 82.4 °F 88.2 °F 73.4 °F 74% 29.77 in 5.6 mi West 11.5 mph 23.0 mph N/A   Mostly Cloudy
8:00 PM 82.4 °F 88.2 °F 73.4 °F 74% 29.77 in 5.6 mi WSW 8.1 mph - N/A   Mostly Cloudy
8:30 PM 82.4 °F 89.5 °F 75.2 °F 79% 29.77 in 5.0 mi WSW 12.7 mph - N/A   Mostly Cloudy
9:00 PM 82.4 °F 89.5 °F 75.2 °F 79% 29.80 in 5.0 mi WSW 10.4 mph - N/A   Mostly Cloudy
9:30 PM 84.2 °F 92.3 °F 75.2 °F 74% 29.80 in 5.0 mi West 17.3 mph - N/A   Mostly Cloudy
10:00 PM 84.2 °F 92.3 °F 75.2 °F 74% 29.80 in 5.0 mi West 11.5 mph - N/A   Mostly Cloudy
10:30 PM 84.2 °F 92.3 °F 75.2 °F 74% 29.83 in 5.0 mi WSW 11.5 mph - N/A   Mostly Cloudy
11:00 PM 84.2 °F 92.3 °F 75.2 °F 74% 29.80 in 5.0 mi West 12.7 mph - N/A   Mostly Cloudy
11:30 PM 84.2 °F 92.3 °F 75.2 °F 74% 29.80 in 5.0 mi West 16.1 mph - N/A   Mostly Cloudy